New Philadelphia, OH

2:45 PM EST on November 21, 2017 (GMT -0500)
Clever

Weather History for KPHD - November, 2013

Change the Weather History Date:

Tuesday, November 12, 2013

  Actual Average Record
Temperature  
Mean Temperature 31 °F 44 °F  
Max Temperature 34 °F 55 °F 70 °F (2010)
Min Temperature 27 °F 34 °F 20 °F (1973)
Degree Days  
Heating Degree Days 34 21  
Month to date heating degree days 247 227  
Since 1 July heating degree days 697 726  
Cooling Degree Days 0 0  
Month to date cooling degree days 0 0  
Year to date cooling degree days 755 697  
Moisture  
Dew Point 25 °F    
Average Humidity 78    
Maximum Humidity 92    
Minimum Humidity 63    
Precipitation  
Precipitation 0.16 in 0.10 in 0.79 in (1985)
Month to date precipitation 1.53 1.19  
Year to date precipitation 29.54 34.15  
Sea Level Pressure  
Sea Level Pressure 30.38 in    
Wind  
Wind Speed 7 mph (NNW)    
Max Wind Speed 20 mph    
Max Gust Speed 30 mph    
Visibility 5 miles    
Events Fog , Snow    
T = Trace of Precipitation, MM = Missing Value Source: NWS Daily Summary

Daily Weather History Graph

Daily Weather History Graph

Search for Another Location

Airport or City:

Trip Planner

Search our weather history database for the weather conditions in past years. The results will help you decide how hot, cold, wet, or windy it might be!

Date:

Astronomy

Nov. 12, 2013 Rise Set
Actual Time 7:08 AM EST 5:10 PM EST
Civil Twilight 6:39 AM EST 5:39 PM EST
Nautical Twilight 6:06 AM EST 6:12 PM EST
Astronomical Twilight 5:34 AM EST 6:44 PM EST
Moon 2:25 PM EST (11/12) 1:55 AM EST (11/12)
Length of Visible Light 11h 00m
Length of Day
10h 01m
Waxing Gibbous, 76% of the Moon is Illuminated
Nov 12
Waxing Gibbous
Nov 17
Full
Nov 25
Last Quarter
Dec 2
New
Dec 9
First Quarter

Hourly Weather History & Observations

Time (EST) Temp. Windchill Dew Point Humidity Pressure Visibility Wind Dir Wind Speed Gust Speed Precip Events Conditions
12:15 AM 33.8 °F 27.0 °F 30.2 °F 87% 30.18 in 1.2 mi NNW 8.1 mph - 0.00 in Snow Light Snow
12:17 AM 33.8 °F 27.0 °F 30.2 °F 87% 30.18 in 1.0 mi North 8.1 mph - 0.00 in Snow Light Snow
12:32 AM 33.8 °F 26.4 °F 30.2 °F 87% 30.19 in 1.2 mi NNW 9.2 mph - 0.01 in Snow Light Snow
12:44 AM 33.8 °F 25.8 °F 28.4 °F 81% 30.19 in 2.0 mi NNW 10.4 mph 18.4 mph 0.01 in Snow Light Snow
12:53 AM 33.1 °F 25.5 °F 28.9 °F 85% 30.22 in 1.5 mi NNW 9.2 mph - 0.01 in Snow Light Snow
1:01 AM 33.8 °F 24.8 °F 28.4 °F 81% 30.20 in 1.2 mi North 12.7 mph 20.7 mph 0.00 in Snow Light Snow
1:13 AM 32.0 °F 23.6 °F 28.4 °F 87% 30.21 in 1.2 mi North 10.4 mph - 0.00 in Snow Light Snow
1:23 AM 32.0 °F 22.5 °F 28.4 °F 87% 30.21 in 1.0 mi NNW 12.7 mph 19.6 mph 0.00 in Snow Light Snow
1:29 AM 32.0 °F 23.0 °F 28.4 °F 87% 30.22 in 1.5 mi NNW 11.5 mph - 0.00 in Snow Light Snow
1:40 AM 32.0 °F 25.6 °F 28.4 °F 87% 30.22 in 1.0 mi NNW 6.9 mph - 0.00 in Snow Light Snow
1:44 AM 32.0 °F 22.5 °F 28.4 °F 87% 30.22 in 1.2 mi NNW 12.7 mph 17.3 mph 0.00 in Snow Light Snow
1:53 AM 30.9 °F 22.8 °F 28.0 °F 89% 30.25 in 2.0 mi NW 9.2 mph - 0.00 in Snow Light Snow
2:07 AM 30.2 °F 21.3 °F 28.4 °F 93% 30.23 in 1.8 mi NNW 10.4 mph - 0.00 in Snow Light Snow
2:25 AM 30.2 °F 21.3 °F 26.6 °F 86% 30.24 in 1.5 mi NW 10.4 mph - 0.00 in Snow Light Snow
2:38 AM 30.2 °F 22.6 °F 26.6 °F 86% 30.24 in 2.0 mi NNW 8.1 mph 19.6 mph 0.00 in Snow Light Snow
2:53 AM 30.9 °F 23.5 °F 28.0 °F 89% 30.27 in 1.5 mi NW 8.1 mph - 0.00 in Snow Light Snow
3:07 AM 30.2 °F 22.6 °F 26.6 °F 86% 30.25 in 1.0 mi NW 8.1 mph - 0.00 in Snow Light Snow
3:19 AM 30.2 °F 21.9 °F 26.6 °F 86% 30.26 in 1.2 mi NW 9.2 mph - 0.00 in Snow Light Snow
3:41 AM 30.2 °F 20.8 °F 26.6 °F 86% 30.25 in 3.0 mi NNW 11.5 mph - 0.00 in Snow Light Snow
3:47 AM 30.2 °F 23.4 °F 26.6 °F 86% 30.27 in 7.0 mi NNW 6.9 mph - 0.00 in Snow Light Snow
3:53 AM 30.0 °F 20.5 °F 26.1 °F 85% 30.28 in 9.0 mi NNW 11.5 mph 17.3 mph 0.00 in   Overcast
4:00 AM 30.2 °F 20.8 °F 24.8 °F 80% 30.26 in 10.0 mi NNW 11.5 mph 17.3 mph N/A   Overcast
4:53 AM 30.0 °F 22.4 °F 24.1 °F 79% 30.31 in 10.0 mi NNW 8.1 mph - N/A   Scattered Clouds
5:53 AM 28.9 °F 21.1 °F 21.9 °F 75% 30.34 in 10.0 mi NNW 8.1 mph - N/A   Mostly Cloudy
6:53 AM 28.0 °F 20.0 °F 21.0 °F 75% 30.37 in 10.0 mi NW 8.1 mph - N/A   Partly Cloudy
7:53 AM 28.0 °F 20.8 °F 21.0 °F 75% 30.41 in 10.0 mi NW 6.9 mph - N/A   Scattered Clouds
8:53 AM 28.9 °F 21.9 °F 21.9 °F 75% 30.44 in 10.0 mi NW 6.9 mph - 0.00 in   Mostly Cloudy
9:18 AM 28.4 °F 20.4 °F 23.0 °F 80% 30.42 in 2.0 mi NW 8.1 mph - 0.00 in Snow Light Snow
9:25 AM 28.4 °F 19.7 °F 24.8 °F 86% 30.42 in 1.5 mi NW 9.2 mph - 0.00 in Snow Light Snow
9:30 AM 28.4 °F 19.1 °F 24.8 °F 86% 30.42 in 3.0 mi NW 10.4 mph - 0.00 in Snow Light Snow
9:39 AM 28.4 °F 19.7 °F 24.8 °F 86% 30.42 in 9.0 mi NNW 9.2 mph - 0.00 in   Mostly Cloudy
9:53 AM 30.0 °F 24.1 °F 24.1 °F 79% 30.46 in 10.0 mi NW 5.8 mph - 0.00 in   Mostly Cloudy
10:00 AM 30.2 °F 22.6 °F 24.8 °F 80% 30.43 in 10.0 mi NNW 8.1 mph - 0.01 in   Scattered Clouds
10:08 AM 30.2 °F 22.6 °F 24.8 °F 80% 30.43 in 10.0 mi NNW 8.1 mph - 0.02 in   Mostly Cloudy
10:53 AM 32.0 °F 24.8 °F 24.1 °F 73% 30.46 in 10.0 mi NNW 8.1 mph - 0.07 in   Mostly Cloudy
11:31 AM 30.2 °F 21.3 °F 24.8 °F 80% 30.44 in 1.5 mi ENE 10.4 mph - 0.01 in Snow Light Snow
11:33 AM 28.4 °F 20.4 °F 24.8 °F 86% 30.44 in 0.8 mi ENE 8.1 mph - 0.01 in Snow Light Snow
11:43 AM 28.4 °F 22.2 °F 24.8 °F 86% 30.43 in 0.5 mi North 5.8 mph - 0.01 in Fog , Snow Snow
11:53 AM 30.0 °F 23.2 °F 26.1 °F 85% 30.46 in 0.5 mi NNE 6.9 mph - 0.01 in Fog , Snow Snow
12:02 PM 30.2 °F 26.7 °F 26.6 °F 86% 30.43 in 1.2 mi NNW 3.5 mph - 0.00 in Snow Light Snow
12:06 PM 30.2 °F 26.7 °F 26.6 °F 86% 30.43 in 4.0 mi NNW 3.5 mph - 0.00 in Snow Light Snow
12:17 PM 32.0 °F 28.7 °F 26.6 °F 80% 30.43 in 10.0 mi NNW 3.5 mph - 0.02 in   Mostly Cloudy
12:25 PM 32.0 °F 23.6 °F 24.8 °F 75% 30.43 in 1.2 mi NW 10.4 mph - 0.03 in Snow Light Snow
12:27 PM 30.2 °F 20.8 °F 24.8 °F 80% 30.43 in 0.5 mi NNW 11.5 mph - 0.03 in Snow Snow
12:38 PM 30.2 °F 22.6 °F 26.6 °F 86% 30.43 in 0.2 mi NNW 8.1 mph - 0.03 in Fog , Snow Heavy Snow
12:46 PM 30.2 °F 24.3 °F 26.6 °F 86% 30.43 in 0.2 mi NNW 5.8 mph - 0.03 in Fog , Snow Snow
12:53 PM 30.0 °F 25.2 °F 27.0 °F 88% 30.46 in 0.8 mi WNW 4.6 mph - 0.03 in Snow Light Snow
12:56 PM 30.2 °F 25.4 °F 26.6 °F 86% 30.43 in 1.2 mi NW 4.6 mph - 0.00 in Snow Light Snow
1:00 PM 30.2 °F 24.3 °F 26.6 °F 86% 30.42 in 3.0 mi NW 5.8 mph - 0.00 in Snow Light Snow
1:22 PM 33.8 °F 28.6 °F 24.8 °F 70% 30.42 in 10.0 mi North 5.8 mph - 0.03 in   Scattered Clouds
1:39 PM 32.0 °F 22.5 °F 24.8 °F 75% 30.43 in 1.5 mi NNE 12.7 mph - 0.03 in Snow Light Snow
1:41 PM 30.2 °F 21.3 °F 24.8 °F 80% 30.43 in 0.8 mi North 10.4 mph - 0.03 in Snow Light Snow
1:53 PM 30.9 °F 24.3 °F 27.0 °F 85% 30.47 in 1.0 mi NW 6.9 mph - 0.03 in Snow Light Snow
1:55 PM 32.0 °F 25.6 °F 26.6 °F 80% 30.43 in 2.0 mi NW 6.9 mph - 0.00 in Snow Light Snow
2:02 PM 33.8 °F 27.0 °F 26.6 °F 75% 30.43 in 9.0 mi NNW 8.1 mph - 0.00 in   Mostly Cloudy
2:12 PM 32.0 °F 24.8 °F 26.6 °F 80% 30.43 in 10.0 mi NW 8.1 mph - 0.01 in   Mostly Cloudy
2:25 PM 32.0 °F 24.2 °F 26.6 °F 80% 30.44 in 10.0 mi NW 9.2 mph - 0.01 in   Partly Cloudy
2:53 PM 32.0 °F 24.2 °F 26.1 °F 79% 30.47 in 4.0 mi NNW 9.2 mph - 0.01 in Snow Light Snow
3:03 PM 33.8 °F 27.7 °F 26.6 °F 75% 30.45 in 6.0 mi North 6.9 mph - 0.00 in Snow Light Snow
3:18 PM 33.8 °F 27.7 °F 26.6 °F 75% 30.45 in 10.0 mi North 6.9 mph - 0.00 in   Mostly Cloudy
3:53 PM 33.1 °F 30.0 °F 25.0 °F 72% 30.48 in 10.0 mi NNW 3.5 mph - 0.00 in   Overcast
4:12 PM 33.8 °F 23.5 °F 23.0 °F 65% 30.46 in 10.0 mi NW 16.1 mph 23.0 mph N/A   Overcast
4:53 PM 32.0 °F 23.0 °F 21.9 °F 66% 30.50 in 10.0 mi WNW 11.5 mph 17.3 mph N/A   Partly Cloudy
5:53 PM 30.9 °F 24.3 °F 19.9 °F 64% 30.51 in 10.0 mi WNW 6.9 mph - N/A   Clear
6:53 PM 30.0 °F 22.4 °F 19.0 °F 64% 30.53 in 10.0 mi WNW 8.1 mph - N/A   Scattered Clouds
7:53 PM 28.0 °F 21.7 °F 19.0 °F 69% 30.53 in 10.0 mi WNW 5.8 mph - N/A   Mostly Cloudy
8:53 PM 28.0 °F 22.8 °F 19.0 °F 69% 30.55 in 10.0 mi WNW 4.6 mph - N/A   Mostly Cloudy
9:53 PM 28.0 °F 24.2 °F 19.0 °F 69% 30.55 in 10.0 mi West 3.5 mph - N/A   Mostly Cloudy
10:53 PM 28.9 °F 25.2 °F 19.0 °F 67% 30.55 in 10.0 mi WNW 3.5 mph - N/A   Overcast
11:53 PM 28.9 °F 23.9 °F 19.0 °F 67% 30.54 in 10.0 mi West 4.6 mph - N/A   Overcast